[[{"header":{"parameterUnit":"m.s-1","parameterCategory":1,"la1":30.2991,"la2":30.254,"lo1":-89.0895,"lo2":-89.0444,"dy":0.0017,"dx":0.0017,"nx":28,"ny":28,"refTime":"2024-06-16T21:00:00:Z","depth":0,"parameterNumber":2,"parameterNumberName":"U-component_of_WINDS"},"data":[0,0,0,0,0,0,0,0,0,0,0,0,0,0,0,0,0,0,0,0,0,0,0,0,0,0,0,0,0,0,0,0,0,0,0,0,0,0,0,0,0,0,0,0,0,0,0,0,0,0,0,0,0,0,0,0,0,0,-5.9712,-5.9714,0,-5.9858,-5.986,-5.9861,-5.9844,-5.9842,-5.9839,-5.9837,-5.9984,-5.999,-5.9996,0,0,0,0,0,0,0,0,0,0,0,0,0,-5.9418,-5.9423,-5.9712,-5.9714,-5.9716,-5.9858,-5.986,-5.9862,-5.9845,-5.9842,-5.9839,-5.9836,-5.9982,-5.9989,-5.9996,0,0,0,0,0,0,0,0,0,0,0,0,0,-5.9553,-5.9425,-5.9712,-5.9725,-5.9727,-5.9857,-5.986,-5.9862,-5.9845,-5.9842,-5.9838,-5.9835,-5.9979,-5.9988,-5.9997,-6.0123,0,0,-6.0025,-6.0029,0,0,0,0,0,0,0,0,-5.9545,-5.9563,-5.9721,-5.9724,-5.9727,-5.9829,-5.9809,-5.995,-5.9846,-5.98,-5.9837,-5.9833,-5.9935,-5.9947,-5.9982,-6.013,-6.0136,-6.0026,-6.0031,-6.0035,-6.0038,0,0,0,0,0,0,0,-5.9536,-5.9557,-5.977,-5.9723,-5.9727,-5.9722,-5.9738,-5.9836,-5.9885,-5.9804,-5.9803,-5.9821,-5.9936,-5.9974,-5.9986,-6.0138,-6.0025,-6.0034,-6.0039,-6.0043,-6.0396,-6.04,0,0,0,0,0,0,-5.9523,-5.9549,-5.9765,-5.9774,-5.9626,-5.973,-5.9748,-5.98,-5.9884,-5.9894,-5.9824,-5.9819,-5.996,-5.9975,-5.9991,-6.0142,-6.0035,-6.0044,-6.0049,-6.0392,-6.0397,-6.0401,0,0,0,0,0,0,-5.9517,-5.9543,-5.9759,-5.9662,-5.9689,-5.9739,-5.9798,-5.9805,-5.9842,-5.9899,-5.9908,-5.9853,-5.9958,-5.9978,-6.009,-6.0147,-6.0048,-6.0056,-6.0387,-6.0393,-6.0399,-6.0447,0,0,0,0,0,0,-5.9509,-5.9541,-5.9589,-5.9663,-5.9694,-5.9857,-5.9802,-5.981,-5.9858,-5.9854,-5.9929,-5.9938,-5.9956,-6.0077,-6.0099,-6.0158,-6.0063,-6.0382,-6.039,-6.0397,-6.044,-6.0454,-6.0465,0,0,0,0,0,-5.9498,-5.9597,-5.9592,-5.9618,-5.9756,-5.986,-5.9878,-5.9898,-5.9863,-5.9912,-5.9949,-5.9936,-6.0138,-6.0089,-6.0114,-6.0176,-6.0379,-6.0388,-6.0396,-6.0435,-6.0451,-6.0465,0,0,0,0,0,0,-5.9527,-5.9606,-5.9602,-5.9727,-5.9787,-5.9857,-5.9919,-5.9915,-5.9985,-5.9978,-6.0,-6.0017,-6.013,-6.0165,-6.0108,-6.0302,-6.0254,-6.0268,-6.0274,-6.029,-6.0302,-6.029,-6.0071,0,0,0,0,0,-5.9549,-5.9627,-5.9692,-5.9797,-5.9827,-5.9868,-5.9914,-5.9925,-5.9988,-6.0012,-6.0057,-6.0118,-6.0195,-6.0245,-6.0319,-6.0447,-6.0462,-6.0502,-6.0514,-6.0524,-6.0535,-6.0603,-6.0621,-6.043,-6.043,-6.043,0,0,-5.9593,-5.9646,-5.9694,-5.9804,-5.9851,-5.9931,-5.989,-5.9976,-6.0035,-6.0025,-6.0133,-6.0169,-6.0238,-6.0358,-6.0413,-6.039,-6.0592,-6.0536,-6.0543,-6.0549,-6.0614,-6.0632,-6.0648,-6.0436,-6.0435,-6.0434,0,0,-5.9713,-5.9762,-5.9854,-5.9903,-5.9976,-6.0003,-6.0025,-6.0097,-6.012,-6.0229,-6.0223,-6.0294,-6.0427,-6.0476,-6.0519,-6.066,-6.0649,-6.0684,-6.0746,-6.0813,-6.0828,-6.0841,-6.0889,-6.0906,-6.0695,-6.0695,-6.0695,0,-5.9758,-5.9878,-5.9901,-5.9988,-6.0036,-6.0033,-6.0125,-6.0172,-6.0265,-6.0298,-6.0272,-6.0439,-6.0485,-6.0616,-6.065,-6.0686,-6.071,-6.0673,-6.0824,-6.0838,-6.0851,-6.0896,-6.0914,-6.0699,-6.0698,-6.0698,-6.0698,0,-5.9929,-6.0013,-6.0078,-6.0169,-6.0225,-6.0314,-6.0349,-6.0403,-6.041,-6.044,-6.0551,-6.0607,-6.0692,-6.0725,-6.0732,-6.0857,-6.084,-6.082,-6.077,-6.0872,-6.0915,-6.0933,-6.0704,-6.0702,-6.0701,-6.0701,0,0,-6.0068,-6.0172,-6.0195,-6.0236,-6.0317,-6.0382,-6.0472,-6.0556,-6.06,-6.0666,-6.074,-6.0854,-6.0835,-6.0883,-6.0896,-6.0955,-6.1061,-6.0927,-6.0929,-6.0947,-6.1199,-6.1211,-6.1231,-6.1056,-6.106,-6.1063,-6.1192,0,-6.0194,-6.0352,-6.0375,-6.0514,-6.0591,-6.0591,-6.0668,-6.0726,-6.0757,-6.0827,-6.0861,-6.094,-6.0911,-6.094,-6.0998,-6.1035,-6.1111,-6.1027,-6.1123,-6.1126,-6.1102,-6.1254,-6.1268,-6.1387,-6.1209,-6.1212,-6.1215,0,-6.0361,-6.0431,-6.0578,-6.0649,-6.0682,-6.0751,-6.083,-6.0897,-6.0963,-6.0981,-6.1036,-6.1042,-6.1134,-6.1085,-6.1211,-6.1153,-6.1195,-6.1219,-6.1224,-6.1231,-6.1173,-6.1262,-6.1426,-6.1442,-6.1242,-6.124,-6.1238,0,-6.0444,-6.0576,-6.068,-6.0716,-6.0802,-6.085,-6.0888,-6.0951,-6.1,-6.1069,-6.1101,-6.118,-6.1223,-6.1284,-6.1311,-6.1273,-6.1434,-6.1388,-6.145,-6.1449,-6.148,-6.1477,-6.165,-6.1514,-6.1513,-6.1513,-6.1513,0,-6.058,-6.0669,-6.0718,-6.0782,-6.0882,-6.0909,-6.1006,-6.1043,-6.1099,-6.1169,-6.1175,-6.124,-6.1274,-6.1345,-6.1367,-6.1467,-6.1487,-6.1503,-6.1507,-6.15,-6.1498,-6.1525,-6.1516,-6.1518,-6.1517,-6.1516,-6.1515,0,-6.0688,-6.0725,-6.0838,-6.0911,-6.0931,-6.1001,-6.1063,-6.1125,-6.1156,-6.1245,-6.1267,-6.1316,-6.14,-6.1434,-6.1537,-6.1552,-6.1665,-6.1665,-6.1643,-6.1643,-6.1703,-6.1695,-6.1896,-6.1922,-6.1771,-6.1773,-6.1774,0,-6.077,-6.0839,-6.0919,-6.0967,-6.1006,-6.1083,-6.1133,-6.1163,-6.1215,-6.1296,-6.1348,-6.1432,-6.15,-6.1633,-6.1678,-6.1756,-6.1755,-6.182,-6.1767,-6.1758,-6.1753,-6.1747,-6.1753,-6.1829,-6.183,-6.1831,-6.1832,0,-6.0912,-6.0927,-6.0999,-6.1079,-6.1139,-6.1202,-6.1264,-6.1303,-6.1343,-6.1401,-6.1487,-6.154,-6.1645,-6.1727,-6.1809,-6.1847,-6.1846,-6.185,-6.1868,-6.1859,-6.1843,-6.185,-6.1666,-6.1844,-6.1843,-6.1842,-6.1841,-6.1841,-6.1007,-6.1067,-6.1133,-6.1214,-6.1264,-6.1322,-6.1383,-6.1423,-6.1495,-6.1583,-6.1597,-6.1688,-6.1752,-6.1861,-6.1904,-6.1975,-6.1958,-6.1985,-6.1991,-6.1996,-6.1998,-6.1835,-6.199,-6.199,-6.199,-6.1989,-6.1989,0,-6.1146,-6.1189,-6.1263,-6.135,-6.1413,-6.1409,-6.1478,-6.153,-6.161,-6.1671,-6.1739,-6.1837,-6.1917,-6.1969,-6.205,-6.2097,-6.2099,-6.2117,-6.2112,-6.212,-6.201,-6.1985,-6.2114,-6.2114,-6.2114,-6.2114,-6.2114,-6.2114,-6.1226,-6.1327,-6.135,-6.1476,-6.1518,-6.1607,-6.1647,-6.17,-6.1749,-6.1858,-6.1925,-6.1959,-6.2016,-6.2101,-6.2174,-6.2188,-6.2216,-6.2235,-6.2246,-6.2142,-6.2128,-6.2116,-6.2092,-6.2242,-6.2242,-6.235,-6.2351,-6.2352]},{"header":{"parameterUnit":"m.s-1","parameterCategory":1,"la1":30.2991,"la2":30.254,"lo1":-89.0895,"lo2":-89.0444,"dy":0.0017,"dx":0.0017,"nx":28,"ny":28,"refTime":"2024-06-16T21:00:00:Z","depth":0,"parameterNumber":3,"parameterNumberName":"V-component_of_WINDS"},"data":[0,0,0,0,0,0,0,0,0,0,0,0,0,0,0,0,0,0,0,0,0,0,0,0,0,0,0,0,0,0,0,0,0,0,0,0,0,0,0,0,0,0,0,0,0,0,0,0,0,0,0,0,0,0,0,0,0,0,5.7155,5.7154,0,5.7133,5.7132,5.7132,5.7017,5.7015,5.7012,5.7009,5.6988,5.699,5.6992,0,0,0,0,0,0,0,0,0,0,0,0,0,5.7098,5.71,5.7155,5.7154,5.7154,5.7133,5.7132,5.7132,5.7018,5.7014,5.7011,5.7008,5.6988,5.699,5.6993,0,0,0,0,0,0,0,0,0,0,0,0,0,5.7105,5.7101,5.7155,5.7094,5.7089,5.7133,5.7132,5.7132,5.7018,5.7014,5.701,5.7006,5.6987,5.699,5.6993,5.7094,0,0,5.7002,5.7003,0,0,0,0,0,0,0,0,5.7104,5.7107,5.7103,5.7099,5.7092,5.7073,5.7105,5.7119,5.7019,5.7045,5.7009,5.7004,5.702,5.702,5.7025,5.7093,5.7092,5.7002,5.7004,5.7005,5.7006,0,0,0,0,0,0,0,5.7104,5.7107,5.7146,5.7104,5.7097,5.7069,5.7065,5.7107,5.7056,5.7043,5.7034,5.7033,5.7016,5.7023,5.7024,5.7092,5.7002,5.7005,5.7007,5.7008,5.7238,5.7243,0,0,0,0,0,0,5.7112,5.7107,5.7147,5.7145,5.7088,5.7073,5.7069,5.7084,5.7055,5.7047,5.7037,5.7028,5.7019,5.702,5.7023,5.7136,5.7005,5.7008,5.701,5.7234,5.7239,5.7244,0,0,0,0,0,0,5.7111,5.7116,5.7147,5.7124,5.7126,5.7078,5.7096,5.7085,5.7091,5.7051,5.7041,5.7052,5.7016,5.7018,5.7076,5.7134,5.701,5.7012,5.7229,5.7236,5.7242,5.7366,0,0,0,0,0,0,5.711,5.7117,5.7154,5.7126,5.7128,5.7201,5.71,5.7088,5.7097,5.7085,5.7063,5.7055,5.7013,5.7072,5.7079,5.7136,5.7015,5.7224,5.7232,5.724,5.7356,5.7375,5.7392,0,0,0,0,0,5.7108,5.7191,5.7157,5.7162,5.7173,5.7205,5.7206,5.7155,5.7102,5.7139,5.7113,5.7056,5.7128,5.7079,5.7086,5.7144,5.722,5.723,5.7239,5.7348,5.7372,5.7392,0,0,0,0,0,0,5.7228,5.7186,5.7148,5.7223,5.7219,5.7185,5.723,5.7183,5.7193,5.7182,5.7119,5.7115,5.7182,5.7169,5.7116,5.7239,5.7164,5.7175,5.7244,5.7266,5.7284,5.7284,5.7017,0,0,0,0,0,5.7264,5.7292,5.7254,5.7325,5.7324,5.7279,5.729,5.7252,5.7244,5.7242,5.722,5.7215,5.7236,5.7251,5.7269,5.7355,5.7347,5.7399,5.7417,5.7432,5.7441,5.7484,5.7505,5.7276,5.7276,5.7276,0,0,5.7337,5.7317,5.7339,5.7348,5.734,5.737,5.7277,5.7314,5.7336,5.7248,5.7299,5.7284,5.7275,5.7346,5.7377,5.7338,5.7504,5.7444,5.7456,5.7458,5.7496,5.7518,5.7537,5.7283,5.7281,5.728,0,0,5.7484,5.7474,5.753,5.7523,5.7511,5.748,5.7494,5.7468,5.7454,5.7505,5.7439,5.7465,5.7504,5.7498,5.7501,5.7648,5.7595,5.7656,5.7749,5.7791,5.7809,5.7825,5.7874,5.7893,5.7667,5.7667,5.7667,0,5.7576,5.7619,5.7565,5.7605,5.7611,5.7532,5.7588,5.7585,5.758,5.7585,5.7542,5.7587,5.7576,5.7644,5.768,5.7686,5.7699,5.7656,5.7811,5.7826,5.784,5.7886,5.7905,5.7674,5.7673,5.7673,5.7672,0,5.7731,5.7763,5.781,5.7805,5.7816,5.7865,5.7818,5.7836,5.7797,5.7771,5.7824,5.7808,5.7819,5.7834,5.7797,5.7897,5.7873,5.7822,5.7743,5.7869,5.7912,5.7929,5.7684,5.7682,5.768,5.7678,0,0,5.7951,5.7916,5.7934,5.793,5.7912,5.7935,5.798,5.7991,5.8006,5.8007,5.8041,5.8076,5.8028,5.8031,5.7994,5.8032,5.8145,5.7975,5.7974,5.8004,5.8251,5.8287,5.8309,5.8112,5.8115,5.8118,5.8251,0,5.809,5.8162,5.8115,5.8196,5.8222,5.8149,5.8188,5.8181,5.8158,5.8178,5.8154,5.8177,5.8114,5.8115,5.815,5.8124,5.8193,5.8115,5.8142,5.8144,5.8143,5.8331,5.837,5.8496,5.8268,5.827,5.8272,0,5.826,5.8265,5.8348,5.8323,5.8333,5.8368,5.8373,5.8394,5.8385,5.8366,5.837,5.8323,5.8365,5.8292,5.8348,5.8295,5.8305,5.8294,5.8298,5.8295,5.8213,5.8331,5.8535,5.8553,5.8299,5.8297,5.8295,0,5.8407,5.8437,5.8489,5.8489,5.8461,5.8488,5.8478,5.8465,5.8474,5.8479,5.8484,5.8496,5.8501,5.8511,5.8468,5.8419,5.853,5.8453,5.8514,5.8515,5.8537,5.8535,5.8742,5.855,5.855,5.8549,5.8549,0,5.8564,5.8617,5.8554,5.8586,5.8643,5.8589,5.8647,5.863,5.8619,5.8646,5.8585,5.8612,5.8556,5.8577,5.8545,5.8595,5.8599,5.8584,5.8574,5.8587,5.8589,5.8589,5.8578,5.8554,5.8553,5.8552,5.8551,0,5.8737,5.8697,5.8749,5.8719,5.8713,5.8756,5.873,5.8759,5.8733,5.8768,5.8773,5.8732,5.8754,5.8713,5.8731,5.8709,5.8779,5.8757,5.8781,5.8773,5.8835,5.8828,5.9046,5.9071,5.8867,5.8869,5.887,0,5.8838,5.8876,5.885,5.8863,5.8856,5.8879,5.8888,5.8837,5.8849,5.8841,5.887,5.8887,5.8897,5.8937,5.8908,5.8921,5.8897,5.8973,5.8899,5.891,5.8894,5.8891,5.8894,5.8987,5.899,5.8992,5.8993,0,5.902,5.8998,5.9012,5.902,5.9031,5.9035,5.9034,5.9049,5.8995,5.9012,5.9033,5.9041,5.9058,5.9075,5.9082,5.9072,5.9023,5.9018,5.9031,5.9043,5.9054,5.9046,5.8819,5.9012,5.901,5.9009,5.9008,5.9007,5.9157,5.9187,5.9172,5.919,5.9184,5.9185,5.9209,5.9186,5.9202,5.9211,5.9181,5.9209,5.9199,5.9202,5.9198,5.9219,5.9185,5.9206,5.9211,5.9216,5.9224,5.9054,5.922,5.922,5.9219,5.9219,5.9218,0,5.9332,5.932,5.9337,5.9337,5.9351,5.9305,5.9302,5.9316,5.9341,5.9335,5.9346,5.9371,5.9387,5.9361,5.9373,5.9395,5.9373,5.9399,5.9395,5.9393,5.9255,5.924,5.9417,5.9417,5.9417,5.9417,5.9417,5.9417,5.9425,5.9472,5.9449,5.9493,5.948,5.9506,5.9508,5.9508,5.9503,5.9532,5.9544,5.9527,5.9513,5.9524,5.9537,5.9529,5.9534,5.9568,5.9552,5.9423,5.9403,5.9385,5.937,5.9571,5.9571,5.9688,5.9689,5.969]}]]